• In Hungary
  • List of Countries
  • For 7 days
  • Water Temperature
  • Satellite Maps
  • Weather Map
  • News
  • Weather Widgets
  • user-avatar
    Login

    Hourly Weather Neshville

    Today, 24 February, Saturday

    Time Temperature Precipitation Wind Pressure Humidity
    00:00 +18°C° 0.4 mm 2 mps 754 mmHg 92%
    01:00 +18°C° 0.9 mm 2 mps 754 mmHg 92%
    02:00 +17°C° 0.9 mm 2 mps 753 mmHg 92%
    03:00 +17°C° 0.9 mm 2 mps 752 mmHg 93%
    04:00 +18°C° 0.7 mm 3 mps 752 mmHg 93%
    05:00 +18°C° 0.7 mm 3 mps 752 mmHg 94%
    06:00 +18°C° 0.7 mm 3 mps 751 mmHg 94%
    07:00 +19°C° 0.2 mm 4 mps 751 mmHg 93%
    08:00 +20°C° 0.2 mm 5 mps 751 mmHg 91%
    09:00 +21°C° 0.2 mm 5 mps 751 mmHg 89%
    10:00 +21°C° 0.2 mm 5 mps 751 mmHg 87%
    11:00 +21°C° 0.2 mm 5 mps 750 mmHg 85%
    12:00 +22°C° 0.2 mm 6 mps 750 mmHg 84%
    13:00 +22°C° 0.2 mm 6 mps 749 mmHg 82%
    14:00 +22°C° 0.2 mm 6 mps 749 mmHg 81%
    15:00 +22°C° 0.2 mm 6 mps 748 mmHg 80%
    16:00 +22°C° 0.2 mm 6 mps 748 mmHg 82%
    17:00 +21°C° 0.2 mm 6 mps 747 mmHg 85%
    18:00 +21°C° 0.2 mm 5 mps 747 mmHg 87%
    19:00 +21°C° 1.5 mm 6 mps 746 mmHg 87%
    20:00 +21°C° 1.5 mm 6 mps 746 mmHg 88%
    21:00 +21°C° 1.5 mm 7 mps 746 mmHg 88%
    22:00 +21°C° 2.3 mm 8 mps 745 mmHg 87%
    23:00 +21°C° 2.3 mm 9 mps 745 mmHg 86%

    Tomorrow, 25 February, Sunday

    Time Temperature Precipitation Wind Pressure Humidity
    00:00 +21°C° 2.3 mm 10 mps 744 mmHg 85%
    01:00 +21°C° 5.3 mm 9 mps 745 mmHg 86%
    02:00 +20°C° 5.3 mm 8 mps 745 mmHg 86%
    03:00 +18°C° 5.3 mm 7 mps 746 mmHg 86%
    04:00 +17°C° 0.2 mm 6 mps 747 mmHg 83%
    05:00 +16°C° 0.2 mm 5 mps 748 mmHg 81%
    06:00 +14°C° 0.2 mm 4 mps 748 mmHg 78%
    07:00 +14°C° 0 mm 4 mps 749 mmHg 77%
    08:00 +13°C° 0 mm 3 mps 750 mmHg 75%
    09:00 +13°C° 0 mm 3 mps 751 mmHg 73%
    10:00 +13°C° 0 mm 3 mps 751 mmHg 69%
    11:00 +14°C° 0 mm 3 mps 752 mmHg 64%
    12:00 +15°C° 0 mm 2 mps 752 mmHg 60%
    13:00 +15°C° 0 mm 2 mps 751 mmHg 57%
    14:00 +15°C° 0 mm 1 mps 751 mmHg 55%
    15:00 +16°C° 0 mm 1 mps 751 mmHg 53%
    16:00 +15°C° 0 mm 1 mps 751 mmHg 56%
    17:00 +14°C° 0 mm 1 mps 751 mmHg 59%
    18:00 +13°C° 0 mm 1 mps 752 mmHg 62%
    19:00 +13°C° 0 mm 1 mps 752 mmHg 64%
    20:00 +12°C° 0 mm 1 mps 752 mmHg 66%
    21:00 +12°C° 0 mm 1 mps 753 mmHg 67%
    22:00 +11°C° 0 mm 0 mps 753 mmHg 68%
    23:00 +11°C° 0 mm 0 mps 753 mmHg 69%

    Day after tomorrow, 26 February, Monday

    Time Temperature Precipitation Wind Pressure Humidity
    00:00 +10°C° 0 mm 0 mps 753 mmHg 70%
    01:00 +10°C° 0 mm 0 mps 753 mmHg 72%
    02:00 +9°C° 0 mm 0 mps 753 mmHg 74%
    03:00 +9°C° 0 mm 1 mps 752 mmHg 77%
    04:00 +9°C° 0 mm 1 mps 753 mmHg 78%
    05:00 +7°C° 0 mm 0 mps 753 mmHg 79%
    06:00 +7°C° 0 mm 0 mps 754 mmHg 80%
    07:00 +10°C° 0 mm 1 mps 754 mmHg 74%
    08:00 +12°C° 0 mm 1 mps 755 mmHg 68%
    09:00 +13°C° 0 mm 1 mps 756 mmHg 62%
    10:00 +15°C° 0 mm 1 mps 756 mmHg 56%
    11:00 +16°C° 0 mm 1 mps 756 mmHg 50%
    12:00 +19°C° 0 mm 1 mps 756 mmHg 43%
    13:00 +19°C° 0 mm 1 mps 756 mmHg 43%
    14:00 +18°C° 0 mm 2 mps 756 mmHg 42%
    15:00 +18°C° 0 mm 2 mps 755 mmHg 41%
    16:00 +16°C° 0 mm 2 mps 756 mmHg 46%
    17:00 +14°C° 0 mm 1 mps 756 mmHg 51%
    18:00 +13°C° 0 mm 1 mps 756 mmHg 56%
    19:00 +12°C° 0 mm 1 mps 757 mmHg 59%
    20:00 +11°C° 0 mm 1 mps 757 mmHg 61%
    21:00 +10°C° 0 mm 1 mps 757 mmHg 64%
    22:00 +10°C° 0 mm 1 mps 757 mmHg 66%
    23:00 +10°C° 0 mm 1 mps 757 mmHg 68%

    27 February, Tuesday

    Time Temperature Precipitation Wind Pressure Humidity
    00:00 +9°C° 0 mm 1 mps 757 mmHg 70%
    01:00 +9°C° 0 mm 1 mps 757 mmHg 71%
    02:00 +8°C° 0 mm 1 mps 757 mmHg 73%
    03:00 +8°C° 0 mm 1 mps 757 mmHg 74%
    04:00 +8°C° 0 mm 1 mps 757 mmHg 75%
    05:00 +8°C° 0 mm 1 mps 758 mmHg 76%
    06:00 +7°C° 0 mm 1 mps 758 mmHg 76%
    07:00 +9°C° 0 mm 1 mps 758 mmHg 71%
    08:00 +10°C° 0 mm 2 mps 758 mmHg 66%
    09:00 +13°C° 0 mm 2 mps 758 mmHg 60%
    10:00 +15°C° 0 mm 2 mps 758 mmHg 56%
    11:00 +17°C° 0 mm 3 mps 757 mmHg 51%
    12:00 +18°C° 0 mm 3 mps 757 mmHg 47%
    13:00 +19°C° 0 mm 3 mps 756 mmHg 48%
    14:00 +19°C° 0 mm 3 mps 755 mmHg 49%
    15:00 +19°C° 0 mm 3 mps 754 mmHg 51%
    16:00 +18°C° 0 mm 3 mps 754 mmHg 57%
    17:00 +16°C° 0 mm 2 mps 754 mmHg 64%
    18:00 +15°C° 0 mm 2 mps 753 mmHg 71%
    19:00 +14°C° 0 mm 2 mps 753 mmHg 72%
    20:00 +14°C° 0 mm 2 mps 753 mmHg 74%
    21:00 +14°C° 0 mm 2 mps 753 mmHg 76%
    22:00 +13°C° 0 mm 3 mps 752 mmHg 77%
    23:00 +13°C° 0 mm 3 mps 752 mmHg 78%

    28 February, Wednesday

    Time Temperature Precipitation Wind Pressure Humidity
    00:00 +13°C° 0 mm 4 mps 751 mmHg 79%
    01:00 +14°C° 0.2 mm 4 mps 750 mmHg 83%
    02:00 +14°C° 0.2 mm 4 mps 750 mmHg 87%
    03:00 +14°C° 0.2 mm 4 mps 749 mmHg 91%
    04:00 +14°C° 1.8 mm 4 mps 749 mmHg 92%
    05:00 +14°C° 1.8 mm 4 mps 748 mmHg 93%
    06:00 +15°C° 1.8 mm 4 mps 748 mmHg 94%
    07:00 +15°C° 3.1 mm 5 mps 747 mmHg 94%
    08:00 +15°C° 3.1 mm 5 mps 747 mmHg 94%
    09:00 +15°C° 3.1 mm 5 mps 747 mmHg 94%
    10:00 +16°C° 0.9 mm 5 mps 746 mmHg 93%
    11:00 +17°C° 0.9 mm 5 mps 745 mmHg 93%
    12:00 +19°C° 0.9 mm 4 mps 745 mmHg 92%
    13:00 +19°C° 2.1 mm 5 mps 744 mmHg 91%
    14:00 +20°C° 2.1 mm 6 mps 743 mmHg 90%
    15:00 +20°C° 2.1 mm 7 mps 742 mmHg 89%
    16:00 +20°C° 1.4 mm 7 mps 741 mmHg 88%
    17:00 +20°C° 1.4 mm 7 mps 740 mmHg 88%
    18:00 +20°C° 1.4 mm 7 mps 739 mmHg 88%
    19:00 +20°C° 5 mm 8 mps 739 mmHg 88%
    20:00 +19°C° 5 mm 9 mps 738 mmHg 87%
    21:00 +21°C° 5 mm 9 mps 738 mmHg 87%
    22:00 +18°C° 1.6 mm 8 mps 738 mmHg 84%
    23:00 +17°C° 1.6 mm 7 mps 739 mmHg 82%

    1 March, Thursday

    Time Temperature Precipitation Wind Pressure Humidity
    00:00 +16°C° 1.6 mm 6 mps 739 mmHg 80%
    01:00 +15°C° 0 mm 6 mps 740 mmHg 75%
    02:00 +13°C° 0 mm 6 mps 740 mmHg 69%
    03:00 +11°C° 0 mm 6 mps 740 mmHg 64%
    04:00 +11°C° 0 mm 6 mps 741 mmHg 65%
    05:00 +10°C° 0 mm 6 mps 741 mmHg 66%
    06:00 +10°C° 0 mm 6 mps 742 mmHg 67%
    07:00 +10°C° 0 mm 7 mps 742 mmHg 64%
    08:00 +11°C° 0 mm 8 mps 743 mmHg 62%
    09:00 +12°C° 0 mm 8 mps 743 mmHg 59%
    10:00 +13°C° 0 mm 8 mps 743 mmHg 55%
    11:00 +15°C° 0 mm 9 mps 744 mmHg 51%
    12:00 +16°C° 0 mm 9 mps 744 mmHg 47%
    13:00 +16°C° 0 mm 9 mps 744 mmHg 47%
    14:00 +16°C° 0 mm 9 mps 744 mmHg 47%
    15:00 +16°C° 0 mm 9 mps 744 mmHg 47%
    16:00 +13°C° 0 mm 8 mps 745 mmHg 50%
    17:00 +11°C° 0 mm 7 mps 746 mmHg 53%
    18:00 +10°C° 0 mm 5 mps 746 mmHg 56%
    19:00 +9°C° 0 mm 6 mps 747 mmHg 54%
    20:00 +8°C° 0 mm 6 mps 747 mmHg 52%
    21:00 +8°C° 0 mm 7 mps 748 mmHg 50%
    22:00 +6°C° 0 mm 7 mps 748 mmHg 53%
    23:00 +5°C° 0 mm 7 mps 749 mmHg 55%
    Show more